| time (UTC) | temp C | wind direction | speed KPH | gust KPH | rain 1hr cm | rain 24hr cm | rain mn cm | humidity % | barometer mb |
| 20260502130525 | 7 | 356 | 1.6 | 3.2 | 0.00 | 0.00 | 0.00 | 68 | 1010.8 |
| 20260502123509 | 6 | 105 | 4.8 | 6.4 | 0.00 | 0.00 | 0.00 | 71 | 1010.9 |
| 20260502123005 | 6 | 21 | 3.2 | 3.2 | 0.00 | 0.00 | 0.00 | 72 | 1010.8 |
| 20260502122501 | 6 | 328 | 1.6 | 1.6 | 0.00 | 0.00 | 0.00 | 72 | 1010.5 |
| 20260502121959 | 6 | 10 | 1.6 | 1.6 | 0.00 | 0.00 | 0.00 | 73 | 1010.4 |
| 20260502121456 | 6 | 340 | 1.6 | 1.6 | 0.00 | 0.00 | 0.00 | 72 | 1010.8 |
| 20260502120954 | 6 | 5 | 0.0 | 0.0 | 0.00 | 0.00 | 0.00 | 74 | 1010.5 |
| 20260502120450 | 6 | 27 | 0.0 | 0.0 | 0.00 | 0.00 | 0.00 | 75 | 1010.8 |
| 20260502115444 | 5 | 35 | 3.2 | 6.4 | 0.00 | 0.00 | 0.00 | 73 | 1010.5 |
| 20260502114940 | 5 | 15 | 1.6 | 3.2 | 0.00 | 0.00 | 0.00 | 75 | 1010.8 |
| 20260502114437 | 5 | 33 | 1.6 | 3.2 | 0.00 | 0.00 | 0.00 | 75 | 1010.9 |
| 20260502113934 | 5 | 12 | 0.0 | 0.0 | 0.00 | 0.00 | 0.00 | 75 | 1010.8 |
| 20260502113432 | 5 | 2 | 0.0 | 0.0 | 0.00 | 0.00 | 0.00 | 75 | 1010.9 |
| 20260502112931 | 5 | 356 | 0.0 | 0.0 | 0.00 | 0.00 | 0.00 | 78 | 1010.8 |
| 20260502112427 | 5 | 6 | 0.0 | 0.0 | 0.00 | 0.00 | 0.00 | 78 | 1010.6 |
| 20260502111925 | 5 | 353 | 0.0 | 1.6 | 0.00 | 0.00 | 0.00 | 77 | 1010.8 |
| 20260502111422 | 5 | 349 | 0.0 | 1.6 | 0.00 | 0.00 | 0.00 | 76 | 1010.9 |
| 20260502110919 | 5 | 188 | 4.8 | 4.8 | 0.00 | 0.00 | 0.00 | 76 | 1010.9 |
| 20260502110417 | 5 | 356 | 0.0 | 0.0 | 0.00 | 0.00 | 0.00 | 77 | 1010.8 |
| 20260502105914 | 5 | 21 | 0.0 | 1.6 | 0.00 | 0.00 | 0.00 | 77 | 1010.8 |
| 20260502105411 | 5 | 351 | 1.6 | 1.6 | 0.00 | 0.00 | 0.00 | 78 | 1010.6 |
| 20260502104909 | 5 | 341 | 1.6 | 3.2 | 0.00 | 0.00 | 0.00 | 78 | 1010.9 |
| 20260502104406 | 5 | 18 | 1.6 | 3.2 | 0.00 | 0.00 | 0.00 | 78 | 1010.6 |
| 20260502103903 | 5 | 353 | 0.0 | 0.0 | 0.00 | 0.00 | 0.00 | 77 | 1010.5 |
| 20260502103401 | 5 | 288 | 3.2 | 3.2 | 0.00 | 0.00 | 0.00 | 75 | 1010.6 |
| 20260502102857 | 5 | 41 | 1.6 | 3.2 | 0.00 | 0.00 | 0.00 | 76 | 1011.0 |
| 20260502102354 | 5 | 355 | 1.6 | 1.6 | 0.00 | 0.00 | 0.00 | 77 | 1010.8 |
| 20260502101852 | 5 | 331 | 1.6 | 3.2 | 0.00 | 0.00 | 0.00 | 79 | 1010.4 |
| 20260502101350 | 5 | 354 | 0.0 | 0.0 | 0.00 | 0.00 | 0.00 | 77 | 1010.6 |
| 20260502100848 | 5 | 14 | 0.0 | 1.6 | 0.00 | 0.00 | 0.00 | 77 | 1010.5 |
| 20260502100347 | 5 | 7 | 3.2 | 3.2 | 0.00 | 0.00 | 0.00 | 78 | 1010.5 |
| 20260502091320 | 5 | 355 | 0.0 | 0.0 | 0.00 | 0.00 | 0.00 | 75 | 1010.5 |
| 20260502090818 | 5 | 354 | 0.0 | 1.6 | 0.00 | 0.00 | 0.00 | 75 | 1010.2 |
| 20260502090315 | 5 | 13 | 3.2 | 4.8 | 0.00 | 0.00 | 0.00 | 75 | 1010.6 |
| 20260502071210 | 6 | 1 | 3.2 | 3.2 | 0.00 | 0.00 | 0.00 | 76 | 1009.8 |
| 20260502070708 | 6 | 3 | 3.2 | 3.2 | 0.00 | 0.00 | 0.00 | 78 | 1009.8 |
| 20260502070206 | 6 | 355 | 1.6 | 1.6 | 0.00 | 0.00 | 0.00 | 77 | 1010.0 |
| 20260502065704 | 7 | 357 | 1.6 | 1.6 | 0.00 | 0.00 | 0.00 | 75 | 1009.8 |
| 20260502065201 | 7 | 338 | 1.6 | 3.2 | 0.00 | 0.00 | 0.00 | 75 | 1009.8 |
| 20260502064700 | 7 | 331 | 1.6 | 1.6 | 0.00 | 0.00 | 0.00 | 75 | 1009.5 |
| 20260502064156 | 7 | 325 | 1.6 | 3.2 | 0.00 | 0.00 | 0.00 | 75 | 1009.8 |
| 20260502063654 | 7 | 5 | 3.2 | 3.2 | 0.00 | 0.00 | 0.00 | 73 | 1009.7 |
| 20260502063152 | 7 | 339 | 4.8 | 6.4 | 0.00 | 0.00 | 0.00 | 74 | 1009.6 |
| 20260502062649 | 7 | 345 | 3.2 | 3.2 | 0.00 | 0.00 | 0.00 | 74 | 1009.4 |
| 20260502062146 | 7 | 253 | 3.2 | 9.7 | 0.00 | 0.00 | 0.00 | 73 | 1009.5 |
| 20260502061644 | 7 | 2 | 0.0 | 1.6 | 0.00 | 0.00 | 0.00 | 74 | 1009.5 |
| 20260502061142 | 7 | 302 | 1.6 | 3.2 | 0.00 | 0.00 | 0.00 | 73 | 1009.5 |
| 20260502060642 | 7 | 302 | 3.2 | 4.8 | 0.00 | 0.00 | 0.00 | 73 | 1009.6 |
| 20260502060139 | 7 | 337 | 4.8 | 6.4 | 0.00 | 0.00 | 0.00 | 72 | 1009.8 |
| 20260502055637 | 7 | 352 | 8.0 | 11.3 | 0.00 | 0.00 | 0.00 | 73 | 1009.8 |
| 20260502055134 | 7 | 347 | 3.2 | 3.2 | 0.00 | 0.00 | 0.00 | 74 | 1009.8 |
| 20260502054633 | 7 | 316 | 9.7 | 12.9 | 0.00 | 0.00 | 0.00 | 74 | 1009.8 |
| 20260502054130 | 8 | 3 | 0.0 | 1.6 | 0.00 | 0.00 | 0.00 | 74 | 1009.9 |
| 20260502053627 | 8 | 10 | 4.8 | 6.4 | 0.00 | 0.00 | 0.00 | 74 | 1009.7 |
| 20260502053125 | 8 | 331 | 1.6 | 1.6 | 0.00 | 0.00 | 0.00 | 74 | 1009.6 |
| 20260502052623 | 8 | 311 | 3.2 | 3.2 | 0.00 | 0.00 | 0.00 | 75 | 1009.6 |
| 20260502052121 | 8 | 332 | 3.2 | 4.8 | 0.00 | 0.00 | 0.00 | 75 | 1009.5 |
| 20260502051619 | 8 | 353 | 1.6 | 1.6 | 0.00 | 0.00 | 0.00 | 75 | 1009.4 |
| 20260502051117 | 8 | 333 | 3.2 | 3.2 | 0.00 | 0.00 | 0.00 | 75 | 1009.7 |
| 20260502050612 | 8 | 298 | 3.2 | 3.2 | 0.00 | 0.00 | 0.00 | 75 | 1009.4 |
| 20260502050109 | 8 | 328 | 3.2 | 3.2 | 0.00 | 0.00 | 0.00 | 75 | 1009.5 |
| 20260502045606 | 8 | 317 | 6.4 | 11.3 | 0.00 | 0.00 | 0.00 | 75 | 1009.3 |
| 20260502045103 | 8 | 310 | 3.2 | 4.8 | 0.00 | 0.00 | 0.00 | 75 | 1009.4 |
| 20260502044559 | 8 | 319 | 6.4 | 6.4 | 0.00 | 0.00 | 0.00 | 75 | 1009.5 |
| 20260502044056 | 8 | 313 | 4.8 | 4.8 | 0.00 | 0.00 | 0.00 | 76 | 1009.4 |
| 20260502043554 | 9 | 297 | 3.2 | 3.2 | 0.00 | 0.00 | 0.00 | 76 | 1009.4 |
| 20260502043050 | 9 | 333 | 1.6 | 3.2 | 0.00 | 0.00 | 0.00 | 75 | 1009.3 |
| 20260502042545 | 10 | 346 | 4.8 | 4.8 | 0.00 | 0.00 | 0.00 | 74 | 1009.4 |
| 20260502042043 | 10 | 267 | 3.2 | 3.2 | 0.00 | 0.00 | 0.00 | 73 | 1009.8 |
| 20260502041540 | 10 | 18 | 1.6 | 1.6 | 0.00 | 0.00 | 0.00 | 73 | 1009.5 |
| 20260502041037 | 10 | 308 | 6.4 | 9.7 | 0.00 | 0.00 | 0.00 | 71 | 1009.5 |
| 20260502040533 | 10 | 317 | 1.6 | 4.8 | 0.00 | 0.00 | 0.00 | 72 | 1009.5 |
| 20260502040031 | 10 | 359 | 3.2 | 3.2 | 0.00 | 0.00 | 0.00 | 71 | 1009.1 |
| 20260502035526 | 10 | 356 | 4.8 | 4.8 | 0.00 | 0.00 | 0.00 | 70 | 1009.0 |
| 20260502035024 | 10 | 358 | 1.6 | 1.6 | 0.00 | 0.00 | 0.00 | 70 | 1009.0 |
| 20260502034522 | 10 | 319 | 4.8 | 4.8 | 0.00 | 0.00 | 0.00 | 70 | 1009.1 |
| 20260502034021 | 10 | 303 | 3.2 | 3.2 | 0.00 | 0.00 | 0.00 | 69 | 1009.0 |
| 20260502033518 | 10 | 212 | 3.2 | 4.8 | 0.00 | 0.00 | 0.00 | 70 | 1009.3 |
| 20260502033015 | 10 | 339 | 0.0 | 1.6 | 0.00 | 0.00 | 0.00 | 69 | 1009.1 |
| 20260502032511 | 10 | 335 | 1.6 | 3.2 | 0.00 | 0.00 | 0.00 | 70 | 1009.0 |
| 20260502032008 | 10 | 301 | 3.2 | 3.2 | 0.00 | 0.00 | 0.00 | 69 | 1009.0 |
| 20260502031506 | 10 | 4 | 0.0 | 0.0 | 0.00 | 0.00 | 0.00 | 68 | 1009.0 |
| 20260502031004 | 10 | 5 | 0.0 | 0.0 | 0.00 | 0.00 | 0.00 | 68 | 1008.6 |
| 20260502030502 | 10 | 345 | 3.2 | 4.8 | 0.00 | 0.00 | 0.00 | 69 | 1008.5 |
| 20260502030000 | 10 | 342 | 3.2 | 4.8 | 0.00 | 0.00 | 0.00 | 68 | 1008.6 |
| 20260502025456 | 10 | 292 | 4.8 | 4.8 | 0.00 | 0.00 | 0.00 | 68 | 1008.6 |
| 20260502024954 | 10 | 330 | 3.2 | 3.2 | 0.00 | 0.00 | 0.00 | 69 | 1008.8 |
| 20260502024452 | 10 | 329 | 6.4 | 6.4 | 0.00 | 0.00 | 0.00 | 67 | 1009.0 |
| 20260502023950 | 10 | 254 | 4.8 | 4.8 | 0.00 | 0.00 | 0.00 | 67 | 1008.9 |
| 20260502023447 | 10 | 331 | 1.6 | 1.6 | 0.00 | 0.00 | 0.00 | 68 | 1009.0 |
| 20260502022945 | 10 | 253 | 4.8 | 6.4 | 0.00 | 0.00 | 0.00 | 69 | 1008.5 |
| 20260502022441 | 11 | 338 | 3.2 | 4.8 | 0.00 | 0.00 | 0.00 | 71 | 1008.6 |
| 20260502021938 | 11 | 22 | 4.8 | 4.8 | 0.00 | 0.00 | 0.00 | 70 | 1008.7 |
| 20260502021436 | 11 | 336 | 3.2 | 3.2 | 0.00 | 0.00 | 0.00 | 70 | 1008.8 |
| 20260502020932 | 11 | 333 | 4.8 | 6.4 | 0.00 | 0.00 | 0.00 | 69 | 1008.6 |
| 20260502020431 | 11 | 337 | 1.6 | 1.6 | 0.00 | 0.00 | 0.00 | 71 | 1009.2 |
| 20260502015926 | 11 | 305 | 3.2 | 4.8 | 0.00 | 0.00 | 0.00 | 70 | 1008.9 |
| 20260502015424 | 11 | 5 | 1.6 | 1.6 | 0.00 | 0.00 | 0.00 | 70 | 1008.9 |
| 20260502014915 | 11 | 335 | 1.6 | 1.6 | 0.00 | 0.00 | 0.00 | 70 | 1008.9 |
| 20260502014413 | 11 | 358 | 4.8 | 6.4 | 0.00 | 0.00 | 0.00 | 70 | 1008.4 |
| 20260502013909 | 11 | 346 | 0.0 | 0.0 | 0.00 | 0.00 | 0.00 | 68 | 1008.8 |
| 20260502013404 | 11 | 21 | 3.2 | 3.2 | 0.00 | 0.00 | 0.00 | 66 | 1008.9 |
| 20260502012901 | 11 | 3 | 1.6 | 1.6 | 0.00 | 0.00 | 0.00 | 67 | 1008.6 |
| 20260502012359 | 11 | 322 | 6.4 | 6.4 | 0.00 | 0.00 | 0.00 | 65 | 1008.6 |
| 20260502011856 | 12 | 335 | 1.6 | 3.2 | 0.00 | 0.00 | 0.00 | 65 | 1008.3 |
| 20260502011352 | 12 | 350 | 6.4 | 6.4 | 0.00 | 0.00 | 0.00 | 64 | 1008.1 |
| 20260502010849 | 12 | 41 | 4.8 | 6.4 | 0.00 | 0.00 | 0.00 | 62 | 1008.0 |
| 20260502010346 | 12 | 337 | 3.2 | 4.8 | 0.00 | 0.00 | 0.00 | 60 | 1007.6 |
| 20260502005843 | 12 | 353 | 3.2 | 3.2 | 0.00 | 0.00 | 0.00 | 61 | 1007.8 |
| 20260502005341 | 12 | 340 | 1.6 | 3.2 | 0.00 | 0.00 | 0.00 | 61 | 1007.5 |
| 20260502004838 | 12 | 308 | 4.8 | 4.8 | 0.00 | 0.00 | 0.00 | 60 | 1007.3 |
| 20260502004333 | 12 | 330 | 1.6 | 1.6 | 0.00 | 0.00 | 0.00 | 60 | 1007.3 |
| 20260502003832 | 13 | 329 | 1.6 | 1.6 | 0.00 | 0.00 | 0.00 | 60 | 1006.8 |
| 20260502003328 | 13 | 318 | 3.2 | 4.8 | 0.00 | 0.00 | 0.00 | 60 | 1006.6 |
| 20260502002825 | 13 | 358 | 1.6 | 3.2 | 0.00 | 0.00 | 0.00 | 65 | 1006.8 |
| 20260502002322 | 12 | 345 | 3.2 | 3.2 | 0.00 | 0.00 | 0.00 | 66 | 1006.6 |
| 20260502001819 | 12 | 357 | 0.0 | 0.0 | 0.00 | 0.00 | 0.00 | 66 | 1006.6 |
| 20260502001317 | 12 | 359 | 1.6 | 3.2 | 0.00 | 0.00 | 0.00 | 71 | 1006.2 |
| 20260502000815 | 11 | 332 | 3.2 | 3.2 | 0.00 | 0.00 | 0.00 | 84 | 1006.2 |
| 20260502000312 | 11 | 348 | 0.0 | 0.0 | 0.00 | 0.00 | 0.00 | 84 | 1005.9 |
| 20260501235807 | 12 | 273 | 3.2 | 3.2 | 0.00 | 0.00 | 0.00 | 83 | 1005.5 |
| 20260501235305 | 12 | 341 | 0.0 | 0.0 | 0.00 | 0.00 | 0.00 | 82 | 1006.0 |
| 20260501234759 | 12 | 7 | 0.0 | 0.0 | 0.00 | 0.00 | 0.00 | 79 | 1005.9 |
| 20260501234256 | 12 | 3 | 0.0 | 0.0 | 0.00 | 0.00 | 0.00 | 82 | 1005.7 |
| 20260501233755 | 12 | 4 | 0.0 | 0.0 | 0.00 | 0.00 | 0.00 | 84 | 1005.4 |
| 20260501233252 | 12 | 358 | 0.0 | 0.0 | 0.00 | 0.00 | 0.00 | 83 | 1005.2 |
| 20260501232748 | 12 | 356 | 0.0 | 0.0 | 0.00 | 0.00 | 0.00 | 82 | 1005.5 |
| 20260501232245 | 12 | 359 | 0.0 | 0.0 | 0.00 | 0.00 | 0.00 | 78 | 1005.3 |
| 20260501231743 | 12 | 9 | 0.0 | 0.0 | 0.00 | 0.00 | 0.00 | 83 | 1005.3 |
| 20260501231241 | 12 | 2 | 0.0 | 1.6 | 0.00 | 0.00 | 0.00 | 80 | 1005.6 |
| 20260501230739 | 12 | 14 | 0.0 | 0.0 | 0.00 | 0.00 | 0.00 | 81 | 1005.6 |
| 20260501230237 | 12 | 346 | 0.0 | 0.0 | 0.00 | 0.00 | 0.00 | 80 | 1005.5 |
| 20260501225735 | 12 | 29 | 1.6 | 1.6 | 0.00 | 0.00 | 0.00 | 82 | 1005.5 |
| 20260501225232 | 13 | 13 | 1.6 | 1.6 | 0.00 | 0.00 | 0.00 | 79 | 1005.5 |
| 20260501224728 | 13 | 11 | 1.6 | 1.6 | 0.00 | 0.00 | 0.00 | 66 | 1005.6 |
| 20260501224226 | 13 | 340 | 0.0 | 1.6 | 0.00 | 0.00 | 0.00 | 71 | 1006.1 |
| 20260501223721 | 13 | 352 | 0.0 | 1.6 | 0.00 | 0.00 | 0.00 | 64 | 1005.9 |
| 20260501223218 | 15 | 357 | 3.2 | 3.2 | 0.00 | 0.00 | 0.00 | 57 | 1005.8 |
| 20260501222714 | 15 | 355 | 3.2 | 4.8 | 0.00 | 0.00 | 0.00 | 52 | 1005.8 |
| 20260501222211 | 15 | 356 | 0.0 | 0.0 | 0.00 | 0.00 | 0.00 | 64 | 1005.3 |
| 20260501221707 | 16 | 357 | 0.0 | 0.0 | 0.00 | 0.00 | 0.00 | 55 | 1005.2 |
| 20260501221205 | 16 | 357 | 0.0 | 0.0 | 0.00 | 0.00 | 0.00 | 49 | 1005.3 |
| 20260501220703 | 16 | 4 | 0.0 | 0.0 | 0.00 | 0.00 | 0.00 | 50 | 1005.1 |
| 20260501220200 | 16 | 5 | 0.0 | 0.0 | 0.00 | 0.00 | 0.00 | 48 | 1005.1 |
| 20260501215657 | 16 | 354 | 1.6 | 1.6 | 0.00 | 0.00 | 0.00 | 45 | 1005.4 |
| 20260501215152 | 16 | 358 | 0.0 | 0.0 | 0.00 | 0.00 | 0.00 | 47 | 1005.3 |
| 20260501214647 | 16 | 353 | 0.0 | 0.0 | 0.00 | 0.00 | 0.00 | 47 | 1005.2 |
| 20260501214143 | 16 | 342 | 1.6 | 1.6 | 0.00 | 0.00 | 0.00 | 44 | 1005.3 |
| 20260501213640 | 17 | 313 | 3.2 | 3.2 | 0.00 | 0.00 | 0.00 | 43 | 1005.3 |
| 20260501213135 | 17 | 319 | 3.2 | 4.8 | 0.00 | 0.00 | 0.00 | 43 | 1005.1 |
| 20260501212632 | 17 | 331 | 0.0 | 1.6 | 0.00 | 0.00 | 0.00 | 45 | 1005.4 |
| 20260501212129 | 17 | 171 | 1.6 | 4.8 | 0.00 | 0.00 | 0.00 | 44 | 1005.4 |
| 20260501211626 | 16 | 356 | 0.0 | 0.0 | 0.00 | 0.00 | 0.00 | 44 | 1005.3 |
| 20260501211124 | 16 | 355 | 0.0 | 0.0 | 0.00 | 0.00 | 0.00 | 47 | 1005.4 |
| 20260501210620 | 16 | 342 | 0.0 | 0.0 | 0.00 | 0.00 | 0.00 | 46 | 1005.5 |
| 20260501210116 | 16 | 321 | 3.2 | 3.2 | 0.00 | 0.00 | 0.00 | 42 | 1005.1 |
| 20260501205613 | 16 | 339 | 1.6 | 1.6 | 0.00 | 0.00 | 0.00 | 43 | 1005.1 |
| 20260501205111 | 16 | 8 | 0.0 | 0.0 | 0.00 | 0.00 | 0.00 | 43 | 1005.2 |
| 20260501204607 | 16 | 347 | 0.0 | 1.6 | 0.00 | 0.00 | 0.00 | 45 | 1005.2 |
| 20260501204103 | 17 | 326 | 3.2 | 3.2 | 0.00 | 0.00 | 0.00 | 43 | 1005.2 |
| 20260501203559 | 17 | 101 | 1.6 | 4.8 | 0.00 | 0.00 | 0.00 | 41 | 1005.3 |
| 20260501203057 | 17 | 220 | 3.2 | 4.8 | 0.00 | 0.00 | 0.00 | 43 | 1005.2 |
| 20260501202554 | 17 | 260 | 3.2 | 3.2 | 0.00 | 0.00 | 0.00 | 40 | 1005.1 |
| 20260501202050 | 17 | 359 | 0.0 | 0.0 | 0.00 | 0.00 | 0.00 | 40 | 1005.2 |
| 20260501201548 | 18 | 349 | 0.0 | 0.0 | 0.00 | 0.00 | 0.00 | 37 | 1005.3 |
| 20260501201044 | 18 | 323 | 4.8 | 4.8 | 0.00 | 0.00 | 0.00 | 40 | 1005.2 |
| 20260501200541 | 17 | 342 | 3.2 | 3.2 | 0.00 | 0.00 | 0.00 | 40 | 1005.7 |
| 20260501200038 | 17 | 264 | 6.4 | 6.4 | 0.00 | 0.00 | 0.00 | 40 | 1005.5 |
| 20260501195536 | 17 | 339 | 1.6 | 1.6 | 0.00 | 0.00 | 0.00 | 40 | 1005.5 |
| 20260501195031 | 17 | 353 | 3.2 | 4.8 | 0.00 | 0.00 | 0.00 | 39 | 1005.5 |
| 20260501194527 | 18 | 305 | 3.2 | 3.2 | 0.00 | 0.00 | 0.00 | 39 | 1005.4 |
| 20260501194023 | 18 | 315 | 1.6 | 1.6 | 0.00 | 0.00 | 0.00 | 39 | 1005.5 |
| 20260501193521 | 18 | 289 | 1.6 | 1.6 | 0.00 | 0.00 | 0.00 | 37 | 1005.6 |
| 20260501193019 | 18 | 44 | 1.6 | 1.6 | 0.00 | 0.00 | 0.00 | 40 | 1005.6 |
| 20260501192515 | 19 | 310 | 3.2 | 6.4 | 0.00 | 0.00 | 0.00 | 38 | 1005.7 |
| 20260501192014 | 19 | 190 | 3.2 | 4.8 | 0.00 | 0.00 | 0.00 | 44 | 1005.6 |
| 20260501191510 | 18 | 320 | 1.6 | 1.6 | 0.00 | 0.00 | 0.00 | 35 | 1005.9 |
| 20260501191008 | 18 | 26 | 3.2 | 3.2 | 0.00 | 0.00 | 0.00 | 35 | 1005.8 |
| 20260501190502 | 18 | 287 | 8.0 | 9.7 | 0.00 | 0.00 | 0.00 | 37 | 1006.0 |
| 20260501185958 | 18 | 127 | 6.4 | 9.7 | 0.00 | 0.00 | 0.00 | 34 | 1006.0 |
| 20260501185454 | 18 | 291 | 1.6 | 3.2 | 0.00 | 0.00 | 0.00 | 39 | 1006.4 |
| 20260501184951 | 17 | 297 | 1.6 | 1.6 | 0.00 | 0.00 | 0.00 | 38 | 1006.1 |
| 20260501184447 | 18 | 41 | 3.2 | 4.8 | 0.00 | 0.00 | 0.00 | 36 | 1006.4 |
| 20260501183942 | 18 | 353 | 0.0 | 1.6 | 0.00 | 0.00 | 0.00 | 38 | 1006.4 |
| 20260501183439 | 18 | 345 | 1.6 | 1.6 | 0.00 | 0.00 | 0.00 | 38 | 1006.6 |
| 20260501182936 | 18 | 19 | 1.6 | 1.6 | 0.00 | 0.00 | 0.00 | 38 | 1006.4 |
| 20260501182433 | 18 | 1 | 1.6 | 1.6 | 0.00 | 0.00 | 0.00 | 34 | 1006.5 |
| 20260501181929 | 18 | 351 | 3.2 | 3.2 | 0.00 | 0.00 | 0.00 | 37 | 1006.5 |
| 20260501181426 | 17 | 350 | 1.6 | 1.6 | 0.00 | 0.00 | 0.00 | 40 | 1006.7 |
| 20260501180923 | 17 | 269 | 3.2 | 3.2 | 0.00 | 0.00 | 0.00 | 42 | 1006.8 |
| 20260501180420 | 17 | 229 | 4.8 | 6.4 | 0.00 | 0.00 | 0.00 | 38 | 1007.0 |
| 20260501175917 | 17 | 335 | 0.0 | 1.6 | 0.00 | 0.00 | 0.00 | 39 | 1006.9 |
| 20260501175414 | 17 | 349 | 3.2 | 4.8 | 0.00 | 0.00 | 0.00 | 41 | 1007.2 |
| 20260501174910 | 17 | 299 | 4.8 | 4.8 | 0.00 | 0.00 | 0.00 | 36 | 1007.0 |
| 20260501174408 | 17 | 232 | 3.2 | 3.2 | 0.00 | 0.00 | 0.00 | 40 | 1007.4 |
| 20260501173906 | 17 | 312 | 6.4 | 6.4 | 0.00 | 0.00 | 0.00 | 39 | 1007.4 |
| 20260501173403 | 17 | 358 | 3.2 | 4.8 | 0.00 | 0.00 | 0.00 | 36 | 1007.5 |
| 20260501172858 | 16 | 295 | 3.2 | 4.8 | 0.00 | 0.00 | 0.00 | 39 | 1007.8 |
| 20260501172354 | 16 | 313 | 1.6 | 3.2 | 0.00 | 0.00 | 0.00 | 47 | 1007.6 |
| 20260501171849 | 16 | 354 | 3.2 | 3.2 | 0.00 | 0.00 | 0.00 | 41 | 1007.8 |
| 20260501171347 | 16 | 224 | 8.0 | 9.7 | 0.00 | 0.00 | 0.00 | 42 | 1007.8 |
| 20260501170843 | 16 | 314 | 3.2 | 3.2 | 0.00 | 0.00 | 0.00 | 40 | 1007.8 |
| 20260501170340 | 17 | 125 | 1.6 | 3.2 | 0.00 | 0.00 | 0.00 | 42 | 1008.0 |
| 20260501165838 | 16 | 198 | 3.2 | 3.2 | 0.00 | 0.00 | 0.00 | 41 | 1008.2 |
| 20260501165335 | 16 | 232 | 8.0 | 14.5 | 0.00 | 0.00 | 0.00 | 42 | 1007.6 |
| 20260501164833 | 16 | 222 | 3.2 | 3.2 | 0.00 | 0.00 | 0.00 | 44 | 1008.0 |
| 20260501164331 | 16 | 298 | 0.0 | 1.6 | 0.00 | 0.00 | 0.00 | 43 | 1008.1 |
| 20260501163826 | 16 | 23 | 3.2 | 4.8 | 0.00 | 0.00 | 0.00 | 45 | 1008.2 |
| 20260501163323 | 16 | 144 | 1.6 | 4.8 | 0.00 | 0.00 | 0.00 | 43 | 1008.2 |
| 20260501162820 | 15 | 16 | 0.0 | 0.0 | 0.00 | 0.00 | 0.00 | 44 | 1008.4 |
| 20260501162317 | 15 | 331 | 4.8 | 4.8 | 0.00 | 0.00 | 0.00 | 47 | 1008.5 |
| 20260501161814 | 16 | 343 | 0.0 | 1.6 | 0.00 | 0.00 | 0.00 | 49 | 1008.5 |
| 20260501161310 | 15 | 14 | 3.2 | 3.2 | 0.00 | 0.00 | 0.00 | 47 | 1008.6 |
| 20260501160807 | 15 | 358 | 0.0 | 0.0 | 0.00 | 0.00 | 0.00 | 48 | 1008.5 |
| 20260501160303 | 15 | 341 | 0.0 | 1.6 | 0.00 | 0.00 | 0.00 | 50 | 1008.8 |
| 20260501155801 | 15 | 312 | 4.8 | 4.8 | 0.00 | 0.00 | 0.00 | 47 | 1008.6 |
| 20260501155258 | 15 | 208 | 1.6 | 3.2 | 0.00 | 0.00 | 0.00 | 51 | 1008.7 |
| 20260501154754 | 15 | 337 | 3.2 | 3.2 | 0.00 | 0.00 | 0.00 | 47 | 1008.7 |
| 20260501154252 | 15 | 349 | 0.0 | 1.6 | 0.00 | 0.00 | 0.00 | 53 | 1008.8 |
| 20260501153749 | 15 | 341 | 3.2 | 4.8 | 0.00 | 0.00 | 0.00 | 50 | 1008.9 |
| 20260501153247 | 14 | 64 | 3.2 | 4.8 | 0.00 | 0.00 | 0.00 | 49 | 1008.7 |
| 20260501152743 | 15 | 40 | 3.2 | 4.8 | 0.00 | 0.00 | 0.00 | 48 | 1008.9 |
| 20260501152240 | 14 | 74 | 8.0 | 11.3 | 0.00 | 0.00 | 0.00 | 50 | 1008.9 |
| 20260501151737 | 15 | 359 | 1.6 | 1.6 | 0.00 | 0.00 | 0.00 | 48 | 1009.0 |
| 20260501151233 | 13 | 2 | 0.0 | 0.0 | 0.00 | 0.00 | 0.00 | 45 | 1009.1 |
| 20260501150730 | 13 | 20 | 4.8 | 6.4 | 0.00 | 0.00 | 0.00 | 48 | 1009.2 |
| 20260501150226 | 13 | 113 | 4.8 | 6.4 | 0.00 | 0.00 | 0.00 | 47 | 1009.6 |
| 20260501145722 | 13 | 335 | 0.0 | 1.6 | 0.00 | 0.00 | 0.00 | 48 | 1009.6 |
| 20260501145220 | 13 | 273 | 3.2 | 4.8 | 0.00 | 0.00 | 0.00 | 52 | 1009.5 |
| 20260501144716 | 13 | 178 | 8.0 | 11.3 | 0.00 | 0.00 | 0.00 | 49 | 1009.4 |
| 20260501144212 | 13 | 359 | 0.0 | 0.0 | 0.00 | 0.00 | 0.00 | 56 | 1009.4 |
| 20260501143708 | 12 | 16 | 0.0 | 0.0 | 0.00 | 0.00 | 0.00 | 56 | 1009.3 |
| 20260501143206 | 13 | 340 | 1.6 | 1.6 | 0.00 | 0.00 | 0.00 | 57 | 1009.7 |
| 20260501142702 | 12 | 139 | 0.0 | 1.6 | 0.00 | 0.00 | 0.00 | 58 | 1009.5 |
| 20260501142158 | 12 | 28 | 1.6 | 3.2 | 0.00 | 0.00 | 0.00 | 59 | 1009.7 |
| 20260501141654 | 12 | 177 | 4.8 | 4.8 | 0.00 | 0.00 | 0.00 | 57 | 1009.7 |
| 20260501141152 | 12 | 217 | 3.2 | 4.8 | 0.00 | 0.00 | 0.00 | 60 | 1009.8 |
| 20260501140648 | 11 | 44 | 3.2 | 4.8 | 0.00 | 0.00 | 0.00 | 61 | 1009.7 |
| 20260501140145 | 11 | 13 | 1.6 | 1.6 | 0.00 | 0.00 | 0.00 | 63 | 1009.9 |
| 20260501135641 | 11 | 227 | 3.2 | 3.2 | 0.00 | 0.00 | 0.00 | 65 | 1009.8 |
| 20260501135139 | 11 | 168 | 6.4 | 6.4 | 0.00 | 0.00 | 0.00 | 62 | 1009.8 |
| 20260501134635 | 11 | 201 | 3.2 | 3.2 | 0.00 | 0.00 | 0.00 | 65 | 1009.7 |
| 20260501134132 | 11 | 13 | 1.6 | 1.6 | 0.00 | 0.00 | 0.00 | 64 | 1009.9 |
| 20260501133629 | 10 | 358 | 0.0 | 1.6 | 0.00 | 0.00 | 0.00 | 64 | 1009.8 |